Preview of NWS' New Version of Forecast
This preview is not operational and should not be used for support decisions.

Regional Weather Roundup (RWR)

Issued by National Weather Service (NWS)

                            
000
ASUS46 KSEW 211220
RWRWA 

WASHINGTON REGIONAL WEATHER ROUNDUP
NATIONAL WEATHER SERVICE SEATTLE WA
500 AM PDT SAT SEP 21 2019

NOTE:"FAIR" INDICATES FEW OR NO CLOUDS BELOW 12,000 FEET WITH NO 
SIGNIFICANT WEATHER AND/OR OBSTRUCTIONS TO VISIBILITY.

WAZ507-509-555>559-211300-
SEATTLE, TACOMA, EVERETT, AND VICINITY
  
CITY           SKY/WX    TMP DP  RH WIND       PRES   REMARKS
EVERETT        CLOUDY    57  53  86 S6        30.15F                  
6HR MIN TEMP:  56; 6HR MAX TEMP:  60;                                

BOEING FIELD   CLOUDY    59  54  83 S5        30.15F                  
6HR MIN TEMP:  58; 6HR MAX TEMP:  61;                                

RENTON         CLOUDY    58  53  84 CALM      30.15S                  
6HR MIN TEMP:  57; 6HR MAX TEMP:  60;                                

SEATAC AIRPORT MOCLDY    58  54  86 SW5       30.15F                  
6HR MIN TEMP:  58; 6HR MAX TEMP:  61;                                

JBLM-MCCHORD   PTCLDY    52  52 100 S3        30.15F                  
6HR MIN TEMP:  52; 6HR MAX TEMP:  61;                                

PUYALLUP       CLOUDY    57  57 100 CALM      30.16S                  
BREMERTON      CLOUDY    54  54 100 CALM      30.16S FOG              
6HR MIN TEMP:  53; 6HR MAX TEMP:  56;                                

JBLM-FT LEWIS  CLEAR     51  51 100 CALM      30.15S                  
6HR MIN TEMP:  50; 6HR MAX TEMP:  59;                                

TACOMA NARROWS CLOUDY    56  55  97 CALM      30.15F                  
6HR MIN TEMP:  53; 6HR MAX TEMP:  59;                                

$$
 
WAZ001-503-506-510-514-515-211300-
NORTH INTERIOR
  
CITY           SKY/WX    TMP DP  RH WIND       PRES   REMARKS
BELLINGHAM     MOCLDY    58  52  80 CALM      30.13F                  
6HR MIN TEMP:  56; 6HR MAX TEMP:  59;                                

FRIDAY HARBOR  MOCLDY    50  48  93 CALM      30.14F FOG              
6HR MIN TEMP:  49; 6HR MAX TEMP:  54;                                

EASTSOUND      PTCLDY    55  54  94 S5        30.11F                  
PORT ANGELES   CLEAR     52  49  89 SW6       30.13F                  
6HR MIN TEMP:  51; 6HR MAX TEMP:  58;                                

EDIZ HOOK      FAIR      54  52  92 CALM      30.13F                  
6HR MIN TEMP:  54; 6HR MAX TEMP:  59;                                

PORT TOWNSEND  CLOUDY    54  54 100 CALM      30.13F                  
NAS WHIDBEY    MOCLDY    57  52  83 SE3       30.17F                  
6HR MIN TEMP:  57; 6HR MAX TEMP:  60;                                

ARLINGTON      CLOUDY    52  51  97 CALM      30.16S                  
6HR MIN TEMP:  52; 6HR MAX TEMP:  54;                                

BURLINGTON     CLOUDY    54  52  94 CALM      30.14F                  
$$
 
WAZ020-022-039-040-504-511-512-211300-
SOUTHWEST INTERIOR
  
CITY           SKY/WX    TMP DP  RH WIND       PRES   REMARKS
SHELTON        CLOUDY    56  53  90 CALM      30.13F                  
6HR MIN TEMP:  56; 6HR MAX TEMP:  58;                                

OLYMPIA        FOG       50  49  96 CALM      30.15F VSB 1/2          
6HR MIN TEMP:  47; 6HR MAX TEMP:  54;                                

CHEHALIS       CLOUDY    54  54 100 CALM      30.16S                  
KELSO          CLOUDY    57  56  96 CALM      30.17S                  
6HR MIN TEMP:  56; 6HR MAX TEMP:  60;                                

VANCOUVER      PTCLDY    54  51  90 CALM      30.16S                  
6HR MIN TEMP:  52; 6HR MAX TEMP:  62;                                

SCAPPOOSE, OR  MOCLDY    50  50 100 CALM      30.16R                  
6HR MIN TEMP:  49; 6HR MAX TEMP:  58;                                

PORTLAND, OR   MOCLDY    55  52  89 CALM      30.16S                  
6HR MIN TEMP:  53; 6HR MAX TEMP:  63;                                

$$
 
WAZ021-516-517-211300-
WASHINGTON COAST
  
CITY           SKY/WX    TMP DP  RH WIND       PRES   REMARKS
FORKS          CLOUDY    55  53  93 CALM      30.13F                  
6HR MIN TEMP:  51; 6HR MAX TEMP:  55;                                

HOQUIAM        CLOUDY    56  56 100 E3        30.14F                  
6HR MIN TEMP:  54; 6HR MAX TEMP:  56;                                

ASTORIA, OR    LGT RAIN  59  58  96 E3        30.13F FOG              
6HR MIN TEMP:  59; 6HR MAX TEMP:  61; 6HR PCP:  0.03;                

$$
 
WAZ019-023-024-040-567>569-211300-
CASCADE MOUNTAINS AND COLUMBIA GORGE
  
CITY           SKY/WX    TMP DP  RH WIND       PRES   REMARKS
STAMPEDE PASS  FOG       46  44  93 VRB5      30.16F VSB 1/4          
6HR MIN TEMP:  46; 6HR MAX TEMP:  47;                                

TROUTDALE, OR  CLOUDY    58  54  86 CALM      30.16S                  
6HR MIN TEMP:  57; 6HR MAX TEMP:  61;                                

HOOD RIVER, OR SUNNY     50  46  87 S3        30.13S                  
THE DALLES, OR CLEAR     58  51  78 CALM      30.10S                  
6HR MIN TEMP:  58; 6HR MAX TEMP:  64;                                

$$

WAZ026-027-041>044-520-521-211300-
EAST SLOPES
  
CITY           SKY/WX    TMP DP  RH WIND       PRES   REMARKS
OMAK           CLEAR     46  40  79 N3        30.07S                  
6HR MIN TEMP:  45; 6HR MAX TEMP:  56;                                

WENATCHEE      CLEAR     54  44  69 W7        30.08S                  
6HR MIN TEMP:  54; 6HR MAX TEMP:  60;                                

ELLENSBURG     CLEAR     56  44  64 NW12      30.09S                  
6HR MIN TEMP:  56; 6HR MAX TEMP:  59;                                

YAKIMA         CLEAR     44  39  82 W7        30.09S                  
6HR MIN TEMP:  43; 6HR MAX TEMP:  54;                                

SUNNYSIDE ARPT SUNNY     44  43  97 NE5       30.09S                  
6HR MIN TEMP:  44; 6HR MAX TEMP:  55;                                

YAKIMA TC      FAIR      50  43  77 CALM      30.08S                  
6HR MIN TEMP:  50; 6HR MAX TEMP:  56;                                

$$

WAZ028-034-035-211300-
COLUMBIA BASIN
  
CITY           SKY/WX    TMP DP  RH WIND       PRES   REMARKS
EPHRATA        CLEAR     55  43  63 N3        30.05R                  
6HR MIN TEMP:  54; 6HR MAX TEMP:  63;                                

MOSES LAKE     CLEAR     49  44  83 SE3       30.07R                  
6HR MIN TEMP:  48; 6HR MAX TEMP:  62;                                

PASCO          CLEAR     50  47  89 CALM      30.09S                  
6HR MIN TEMP:  48; 6HR MAX TEMP:  57;                                

RICHLAND ARPT  SUNNY     51  48  89 CALM      30.08S                  
6HR MIN TEMP:  51; 6HR MAX TEMP:  61;                                

HERMISTON, OR  CLEAR     55  46  71 S6        30.10S                  
6HR MIN TEMP:  54; 6HR MAX TEMP:  63;                                

$$

WAZ036>038-211300-
NORTHEAST WASHINGTON
  
CITY           SKY/WX    TMP DP  RH WIND       PRES   REMARKS
SPOKANE GEIGER MOCLDY    45  42  89 S6        30.07R                  
6HR MIN TEMP:  45; 6HR MAX TEMP:  55;                                

SPOKANE FELTS  CLEAR     47  45  93 CALM      30.08R                  
6HR MIN TEMP:  47; 6HR MAX TEMP:  57;                                

FAIRCHILD AFB  PTCLDY    45  45 100 S6        30.07S                  
6HR MIN TEMP:  44; 6HR MAX TEMP:  54;                                

COEURDALENE,ID FOG       43  43 100 CALM      30.08S VSB 1/4          
6HR MIN TEMP:  42; 6HR MAX TEMP:  55;                                

DEER PARK      PTCLDY    38  37  97 CALM      30.08R FOG              
6HR MIN TEMP:  38; 6HR MAX TEMP:  52;                                

$$

WAZ029>033-211300-
SOUTHEAST WASHINGTON
  
CITY           SKY/WX    TMP DP  RH WIND       PRES   REMARKS
PULLMAN        MOCLDY    51  46  83 CALM      30.11S                  
6HR MIN TEMP:  49; 6HR MAX TEMP:  54;                                

LEWISTON, ID   CLOUDY    55  50  83 CALM      30.09R                  
6HR MIN TEMP:  55; 6HR MAX TEMP:  61; 6HR PCP:  0.04;                

WALLA WALLA    CLEAR     54  46  74 S7        30.11S                  
6HR MIN TEMP:  54; 6HR MAX TEMP:  61;                                

PENDLETON, OR  CLEAR     50  44  80 SE8       30.12S                  
6HR MIN TEMP:  49; 6HR MAX TEMP:  59;                                

$$